Location: Unspecified
(0.0000°N, 0.0000°E)
Time: 21:19:19
(UTC+00:00)

S-56A Canister/Altair - All Passes

Search period start: 22 December 2014 00:00
Search period end: 01 January 2015 00:00
Orbit: 634 x 2502 km, 38.9° (Epoch: 19 December)

Date Brightness Start Highest point End Pass type
(mag) Time Alt. Az. Time Alt. Az. Time Alt. Az.
22 Dec - 09:29:09 10° NW 09:34:03 82° NE 09:40:58 10° SE daylight
22 Dec - 11:34:55 10° WSW 11:39:14 18° SSW 11:44:42 10° SSE daylight
22 Dec - 18:03:01 10° S 18:12:00 18° SSE 18:20:49 10° ESE visible
22 Dec - 20:06:04 10° SSW 20:20:41 53° SE 20:32:41 10° ENE visible
22 Dec - 22:13:13 10° WSW 22:27:10 56° NW 22:37:21 10° NNE visible
23 Dec - 00:28:59 10° WNW 00:32:36 12° NW 00:35:51 10° NNW night (unlit)
23 Dec - 08:57:18 10° NW 09:01:57 64° NE 09:08:12 10° ESE daylight
23 Dec - 11:02:25 10° WSW 11:06:42 20° SSW 11:12:10 10° SSE daylight
23 Dec - 17:30:56 10° S 17:38:35 16° SSE 17:46:18 10° ESE daylight
23 Dec - 19:33:11 10° SSW 19:47:29 47° SE 19:59:50 10° ENE visible
23 Dec - 21:39:40 10° WSW 21:54:18 65° NW 22:05:14 10° NE visible
23 Dec - 23:53:17 10° WNW 23:59:54 16° NW 00:05:28 10° N visible
24 Dec - 08:25:30 10° NNW 08:29:53 47° NE 08:35:27 10° ESE daylight
24 Dec - 10:30:00 10° W 10:34:14 22° SSW 10:39:42 10° SSE daylight
24 Dec - 16:59:15 10° S 17:05:09 13° SSE 17:11:13 10° SE daylight
24 Dec - 19:00:24 10° SSW 19:14:15 42° SE 19:26:48 10° ENE visible
24 Dec - 21:06:16 10° SW 21:21:20 73° NW 21:33:00 10° NE visible
24 Dec - 23:18:24 10° W 23:27:09 20° NW 23:34:17 10° N visible
25 Dec - 07:53:46 10° NNW 07:57:51 35° NE 08:02:41 10° ESE daylight
25 Dec - 09:57:39 10° W 10:01:51 25° SSW 10:07:17 10° SSE daylight
25 Dec - 16:28:32 10° SSE 16:31:43 11° SSE 16:34:59 10° SE daylight
25 Dec - 18:27:45 10° SSW 18:40:59 38° SE 18:53:35 10° E visible
25 Dec - 20:32:59 10° SW 20:48:18 82° NW 21:00:39 10° NE visible
25 Dec - 22:43:53 10° W 22:54:22 25° NW 23:02:46 10° N visible
26 Dec - 07:22:05 10° NNW 07:25:48 26° NE 07:29:55 10° E daylight
26 Dec - 09:25:22 10° W 09:29:33 29° SW 09:34:55 10° SSE daylight
26 Dec - 17:55:13 10° SSW 18:07:43 33° SE 18:20:09 10° E daylight
26 Dec - 19:59:49 10° SW 20:15:11 89° SE 20:28:10 10° NE visible
26 Dec - 22:09:39 10° W 22:21:30 30° NW 22:31:01 10° NNE visible
27 Dec - 06:50:30 10° N 06:53:43 19° NE 06:57:05 10° E daylight
27 Dec - 08:53:08 10° WNW 08:57:20 34° SW 09:02:36 10° SSE daylight
27 Dec - 17:22:51 10° SSW 17:34:28 29° SE 17:46:28 10° E daylight
27 Dec - 19:26:48 10° SW 19:42:01 81° SE 19:55:32 10° NE visible
27 Dec - 21:35:39 10° WSW 21:48:34 36° NW 21:59:05 10° NNE visible
28 Dec - 06:19:03 10° N 06:21:35 15° NE 06:24:07 10° ENE daylight
28 Dec - 08:20:56 10° WNW 08:25:10 43° SW 08:30:19 10° SSE daylight
28 Dec - 16:50:37 10° SSW 17:01:13 25° SE 17:12:32 10° E daylight
28 Dec - 18:53:54 10° SW 19:08:49 73° SE 19:22:46 10° NE visible
28 Dec - 21:01:51 10° WSW 21:15:34 42° NW 21:27:00 10° NNE visible
29 Dec - 05:47:58 10° NNE 05:49:22 11° NE 05:50:45 10° NE daylight
29 Dec - 07:48:46 10° WNW 07:53:05 56° SW 07:58:03 10° SE daylight
29 Dec - 16:18:36 10° S 16:28:00 22° SE 16:38:17 10° E daylight
29 Dec - 18:21:08 10° SW 18:35:35 65° SE 18:49:51 10° ENE visible
29 Dec - 20:28:14 10° WSW 20:42:30 48° NW 20:54:47 10° NNE visible
29 Dec - 22:45:00 10° WNW 22:49:40 12° NW 22:53:57 10° NNW visible
30 Dec - 07:16:37 10° NW 07:21:02 74° SW 07:25:49 10° SE daylight
30 Dec - 15:46:49 10° S 15:54:48 18° SE 16:03:39 10° ESE daylight
30 Dec - 17:48:30 10° SW 18:02:23 58° SE 18:16:46 10° ENE daylight
30 Dec - 19:54:49 10° WSW 20:09:22 55° NW 20:22:26 10° NNE visible
30 Dec - 22:09:14 10° WNW 22:16:36 16° NW 22:23:11 10° N visible
31 Dec - 06:44:28 10° NW 06:49:00 83° NE 06:53:36 10° SE daylight
31 Dec - 15:15:25 10° S 15:21:39 15° SE 15:28:32 10° ESE daylight
31 Dec - 17:16:00 10° SSW 17:29:11 52° SE 17:43:31 10° ENE daylight
31 Dec - 19:21:33 10° WSW 19:36:12 62° NW 19:49:57 10° NE visible
31 Dec - 21:34:14 10° WNW 21:43:30 19° NW 21:51:44 10° N visible
